Location: Rayville (historical)
(39.9992°N, 99.6815°W)
Time: 18:56:13
(UTC+00:00)

Cosmos 1992 Rocket - Pass Details

Date: 18 February 2020
Orbit: 759 x 765 km, 74.0° (Epoch: 05 April)

Event Time Altitude Azimuth Distance (km) Brightness Sun altitude
Rises 01:05:27 0° 201° (SSW) 3,212 7.6 -10.0°
Reaches altitude 10° 01:07:49 10° 202° (SSW) 2,292 6.9 -10.5°
Maximum altitude 01:13:01 79° 289° (WNW) 783 4.2 -11.5°
Drops below altitude 10° 01:18:17 10° 17° (NNE) 2,310 6.3 -12.5°
Sets 01:20:40 0° 18° (NNE) 3,240 7.0 -12.9°
